Home > Weather > Fevik > Past weeks

Flag for Norway Past Weather in Fevik, Norway — Yesterday and Last 2 Weeks

Now
64 °F

Mild.


Feels Like: 64 °F
Forecast: 59 / 63 °F
Wind: 7 mph from Southwest

Location: Torungen Fyr

Current Time: Jul 26, 2016 at 4:21:43 PM

Latest Report: Jul 26, 2016 at 3:00 PM


Visibility: N/A

Pressure: 29.98 "Hg

Humidity: 79%

Dew Point: 57 °F

Location of FevikLocation

Past Weather in Fevik — Graph

°F

Fevik Temperature Yesterday

Maximum temperature yesterday: 68 °F (at 12:00 AM)
Minimum temperature yesterday: 64 °F (at 10:00 PM)
Average temperature yesterday: 66 °F

High & Low Weather Summary for the Past Weeks

 TemperatureHumidityPressure
High71 °F (Jul 16, 5:00 PM)97% (Jul 15, 4:00 AM)30.15 "Hg (Jul 15, 4:00 AM)
Low54 °F (Jul 17, 6:00 AM)37% (Jul 16, 5:00 PM)29.47 "Hg (Jul 11, 9:00 PM)
Average63 °F83%29.93 "Hg
* Reported Jul 11 3:00 PM — Jul 26 3:00 PM, Fevik, Weather by CustomWeather, © 2016

Note: Actual official high and low records may vary slightly from our data, if they occured in-between our weather recording intervals... More about our weather records

Advertising

Fevik Weather History for the Previous 24 Hours

Scroll right to see more
 ConditionsComfort  
Time TempWeatherWind HumidityBarometerVisibility
3:00 PM
Tue, Jul 26
64 °FMild.7 mph79%29.98 "HgN/A
2:00 PM65 °FMild.13 mph78%29.96 "HgN/A
1:00 PM66 °FMild.10 mph70%29.96 "HgN/A
12:00 PM64 °FMild.10 mph79%29.96 "HgN/A
11:00 AM64 °FMild.8 mph73%29.97 "HgN/A
10:00 AM63 °FMild.9 mph83%29.97 "HgN/A
9:00 AM63 °FMild.9 mph82%29.96 "HgN/A
8:00 AM60 °FCool.7 mph87%29.95 "HgN/A
7:00 AM60 °FCool.7 mph88%29.94 "HgN/A
6:00 AM60 °FCool.7 mph92%29.93 "HgN/A
5:00 AM61 °FCool.6 mph91%29.94 "HgN/A
4:00 AM62 °FCool.7 mph90%29.93 "HgN/A
3:00 AM62 °FMild.7 mph92%29.94 "HgN/A
2:00 AM64 °FMild.7 mph93%29.94 "HgN/A
1:00 AM64 °FMild.6 mph94%29.94 "HgN/A
12:00 AM65 °FMild.7 mph95%29.95 "HgN/A
11:00 PM
Mon, Jul 25
65 °FMild.7 mph95%29.95 "HgN/A
10:00 PM64 °FMild.13 mph94%29.95 "HgN/A
9:00 PM65 °FMild.9 mph92%29.95 "HgN/A
8:00 PM66 °FMild.8 mph92%29.96 "HgN/A
7:00 PM65 °FMild.9 mph94%29.97 "HgN/A
6:00 PM66 °FMild.8 mph90%29.98 "HgN/A
4:00 PM66 °FMild.5 mph85%29.99 "HgN/A
Weather by CustomWeather, © 2016

See weather overviewHow to use our weather pages